Location: ???-????? ??????
(61.6167°N, 33.0333°E)
Time: 21:11:39
(UTC+00:00)

Daily predictions for brighter satellites

Satellite Brightness Start Highest point End
(mag) Time Altitude Azimuth Time Altitude Azimuth Time Altitude Azimuth
Cosmos 1725 Rocket 4.4 16:11:02 10° SSW 16:17:17 72° WNW 16:23:31 10° NNE
USA 229 DEB 3.8 16:10:50 10° WSW 16:17:34 89° NNW 16:24:50 10° ENE
USA 229 3.8 16:10:55 10° WSW 16:17:40 89° NNW 16:24:56 10° ENE
USA 116 4.2 16:16:26 10° NNE 16:19:38 33° E 16:23:09 10° SSE
Cosmos 2263 Rocket 2.2 16:14:48 10° SSW 16:20:21 68° SE 16:25:57 10° NE
SL-08 RB Rocket 3.9 16:16:05 10° SE 16:20:31 53° ENE 16:24:55 10° NNW
NOSS 2-3 (C) 4.1 16:16:41 10° WSW 16:21:29 87° SSE 16:27:39 10° ENE
SJ 16-02 1.8 16:17:24 10° SW 16:21:45 66° NW 16:26:10 10° NNE
KORONAS-FOTON 4.0 16:19:45 10° N 16:23:39 54° ENE 16:27:31 10° SSE
Cosmos 1844 Rocket 3.5 16:20:42 10° SSE 16:25:19 27° ESE 16:29:59 10° NE
MetOp-A 4.5 16:20:40 10° SE 16:25:48 49° ENE 16:30:58 10° NNW
OBJECT-B 2.1 16:23:14 10° ESE 16:25:54 24° ENE 16:28:36 10° N
Cosmos 1707 3.3 16:22:26 10° NNW 16:26:16 63° W 16:30:03 10° S
Meteor 2-5 Rocket 3.9 16:20:55 10° NNW 16:26:29 55° ENE 16:32:06 10° SE
Cosmos 1743 4.1 16:23:12 10° SW 16:26:53 44° WNW 16:30:35 10° N
Cosmos 1626 2.9 16:24:58 10° N 16:28:23 33° ENE 16:31:46 10° SE
Cosmos 372 Rocket 4.3 16:23:50 10° S 16:28:47 45° ESE 16:33:43 10° NE
Terra 3.9 16:26:50 10° ENE 16:29:00 13° NNE 16:31:10 10° N
Meteor 1-24 Rocket 4.0 16:24:01 10° NNW 16:29:21 48° ENE 16:34:49 10° SE
NOSS 3-1 (A) 3.7 16:23:45 10° WSW 16:29:48 89° SSE 16:37:08 10° ENE
Cosmos 2034 Rocket 4.3 16:24:27 10° SSE 16:30:25 45° E 16:36:21 10° NNE
Cosmos 1544 4.1 16:27:29 10° SSW 16:31:04 52° WNW 16:34:39 10° N
IRS-1A Rocket 4.4 16:26:26 10° SE 16:32:14 65° ENE 16:37:57 10° NNW
ATLAS CENTAUR R/B 1.6 16:30:55 10° W 16:34:40 58° NNW 16:38:19 10° ENE
CENTAUR R/B 3.8 16:27:43 10° WNW 16:35:07 54° SW 16:43:25 10° SSE
USA 290 4.3 16:32:58 10° NNW 16:35:11 17° NNE 16:37:23 10° ENE
Meteor 1-12 Rocket 4.4 16:29:50 10° S 16:35:30 55° E 16:41:06 10° NNE
Lacrosse 4 Rocket 1.5 16:32:05 10° NW 16:36:09 63° NNE 16:40:12 10° ESE
Cosmos 1898 Rocket 3.6 16:32:29 10° SW 16:37:42 87° NW 16:42:57 10° NE
Meteor 2-9 Rocket 4.4 16:32:37 10° SSW 16:38:27 86° WNW 16:44:10 10° NNE
ISS -1.5 16:38:11 10° SSW 16:39:48 13° SSE 16:41:27 10° SE
NOSS 2-2 (E) 3.9 16:36:44 10° SSW 16:40:11 38° SE 16:44:23 10° ENE
Cosmos 1833 Rocket 2.7 16:36:40 10° NW 16:42:22 75° NE 16:48:02 10° SE
Cosmos 858 Rocket 4.5 16:39:34 10° SSW 16:44:48 85° SE 16:50:03 10° NE
USA 186 1.8 16:41:36 10° SSE 16:44:51 64° ENE 16:48:09 10° N
Cosmos 1300 Rocket 3.6 16:42:04 10° S 16:46:26 60° E 16:50:50 10° NNE
SL-14 R/B 3.7 16:42:47 10° N 16:46:35 43° ENE 16:50:22 10° SE
OPS 8737 4.3 16:44:50 10° W 16:47:42 60° N 16:50:26 11° E
Cosmos 2251 Rocket 4.0 16:42:31 10° NNW 16:47:47 50° NE 16:52:46 11° ESE
ATLAS 3B R/B 2.9 16:41:17 10° WNW 16:48:02 75° SSW 16:55:01 10° SE
Cosmos 2298 Rocket 4.3 16:44:26 10° S 16:49:30 46° ESE 16:54:35 10° NE
Okean 1 Rocket 3.9 16:45:41 10° SSE 16:49:38 31° E 16:53:36 10° NNE
Celestis-02/Orion 38 4.5 16:44:44 10° NE 16:49:50 75° SE 16:54:56 10° SW
NOSS 2-2 (D) 3.9 16:46:37 10° SSW 16:50:01 37° SE 16:54:07 10° ENE
Sich 1 Rocket 3.7 16:45:48 10° SSW 16:50:22 88° ESE 16:55:00 10° NNE
ATLAS 2AS CENTAUR R/B 4.0 16:45:12 10° SSE 16:51:02 23° ESE 16:56:48 10° ENE
Cosmos 2227 4.3 16:45:48 10° SW 16:51:33 86° NW 16:57:18 10° NE
Resurs 01 Rocket 2.4 16:48:17 10° ESE 16:52:21 36° ENE 16:56:26 10° N
Cosmos 1025 Rocket 3.9 16:49:32 10° NNW 16:53:50 54° W 16:58:07 10° S
NOSS 8 (F) 4.2 16:50:53 10° SW 16:53:52 66° SSE 16:57:10 10° ENE
CSL-04 Rocket 4.5 16:48:58 10° S 16:54:22 57° WSW 16:59:52 10° NNW
Cosmos 1975 4.0 16:51:25 10° SW 16:55:23 49° WNW 16:59:22 10° N
SKYMED 2 4.2 16:52:47 10° NNE 16:57:07 62° WNW 17:01:24 10° SW
Cosmos 2227 Rocket 3.4 16:52:25 10° W 16:57:45 40° NNW 17:03:05 10° NE
Cosmos 1937 Rocket 3.6 16:52:42 10° SW 16:57:57 83° NW 17:03:11 10° NE
Okean 2 Rocket 3.0 16:56:11 10° S 17:00:40 78° E 17:05:08 10° NNE
ERS-1 Rocket 4.4 16:57:39 12° E 17:01:06 23° NE 17:05:02 10° N
Cosmos 1513 Rocket 4.4 16:54:58 10° S 17:01:11 81° E 17:07:20 10° NNE
YAOGAN 1 4.4 16:57:28 10° SSW 17:01:27 34° W 17:05:26 10° NNW
Cosmos 1766 4.0 16:58:51 10° SSE 17:02:21 31° E 17:05:54 10° NNE
Cosmos 1470 4.5 17:01:51 14° E 17:02:31 15° E 17:04:44 10° NE
Cosmos 1536 Rocket 4.3 16:58:58 10° NNW 17:03:21 58° W 17:07:44 10° S
SPOT 3 Rocket 3.7 16:59:55 10° SE 17:04:58 57° ENE 17:10:02 10° NNW
CZ-4B R/B 4.3 17:02:34 10° N 17:05:20 23° NW 17:08:06 10° WSW
Cosmos 2195 Rocket 4.5 16:59:37 10° NNW 17:05:56 79° ENE 17:12:09 10° SSE
NOSS 3-1 (C) 3.8 17:01:26 10° W 17:07:43 78° N 17:15:17 10° E
ARIANE 5 R/B 3.5 17:04:58 15° ESE 17:07:57 32° NE 17:11:49 10° N
Cosmos 2026 Rocket 4.0 17:02:23 10° NNW 17:08:47 74° ENE 17:15:11 10° SSE
Cosmos 1092 Rocket 4.0 17:02:44 10° NNW 17:08:57 87° ENE 17:15:10 10° SSE
Cosmos 1892 Rocket 3.7 17:05:54 10° N 17:10:11 54° ENE 17:14:14 11° SSE
Cosmos 1125 Rocket 3.8 17:05:22 10° S 17:10:24 44° ESE 17:15:26 10° NE
Cosmos 1464 Rocket 4.0 17:08:19 10° SSW 17:14:29 90° WNW 17:20:47 10° NNE
Resurs 1-3 3.6 17:11:33 10° SSE 17:15:55 65° ENE 17:20:18 10° NNW
Cosmos 2285 Rocket 4.3 17:10:41 10° S 17:16:38 46° ESE 17:22:40 10° NE
Cosmos 2150 Rocket 4.1 17:11:42 10° SSW 17:17:03 63° ESE 17:22:29 10° NE
Cosmos 1428 Rocket 4.5 17:11:06 10° NNW 17:17:26 79° ENE 17:23:40 10° SSE
SJ-6B 2.8 17:14:05 10° SSE 17:17:51 81° WSW 17:21:44 10° NNW
Cosmos 1674 3.5 17:14:24 10° NNW 17:18:11 53° W 17:21:56 10° S
SPOT 5 4.3 17:15:19 15° E 17:18:39 28° NE 17:23:08 10° N
NOSS 2-3 (E) 4.3 17:14:20 10° W 17:19:18 77° N 17:25:40 11° ENE
MOS 1 Rocket 3.0 17:15:30 10° NNE 17:20:00 75° ESE 17:24:19 10° S
CZ-4 R/B 4.2 17:17:06 10° SW 17:20:24 22° W 17:23:40 10° NW
Cosmos 1953 4.4 17:23:16 11° ENE 17:23:16 11° ENE 17:24:06 10° ENE
Cosmos 2084 3.6 17:18:17 10° WNW 17:22:46 80° N 17:25:57 19° E
Cosmos 1461 3.2 17:18:40 10° WNW 17:23:27 79° NNE 17:26:46 20° ESE
CZ-2C R/B 2.9 17:22:21 10° NNE 17:27:47 51° E 17:33:14 10° S
ARGOS 4.2 17:27:20 10° S 17:32:31 46° W 17:37:43 10° NNW
NOSS 2-2 (C) 3.4 17:30:53 10° SW 17:34:34 61° SSE 17:39:02 11° ENE
Cosmos 2279 Rocket 4.4 17:29:05 10° SSE 17:34:52 41° E 17:40:40 10° NNE
Cosmos 2082 Rocket 2.2 17:29:33 10° NW 17:35:14 89° SW 17:39:25 19° SE
Uosat 12 SS-18 rocket 4.1 17:31:23 10° WNW 17:35:43 75° NNE 17:38:31 23° ESE
Cosmos 2098 Rocket 4.2 17:29:06 10° NNW 17:36:12 59° ENE 17:40:52 18° SE
FREGAT/IRIS 3.3 17:33:45 10° S 17:36:16 44° WSW 17:38:50 10° NNW
deb Kosmos-1763 4.3 17:33:55 10° NNW 17:37:31 54° NE 17:39:07 29° ESE
DMSP B5D2-2 4.2 17:33:06 10° NNE 17:38:18 52° E 17:43:29 10° S
MetOp-B 4.2 17:36:07 18° SE 17:40:00 61° ENE 17:45:18 10° NNW
USA 245 3.6 17:40:52 22° NE 17:40:52 22° NE 17:42:22 10° N
Cosmos 1758 4.4 17:41:55 25° E 17:42:15 25° E 17:45:38 10° NNE
Cosmos 1340 Rocket 3.2 17:39:40 16° SSE 17:42:34 41° E 17:46:23 10° NNE
Lacrosse 5 rocket 2.2 17:38:46 10° W 17:42:54 42° SSW 17:45:06 24° SE
Cosmos 2151 Rocket 4.0 17:38:55 10° SSW 17:43:23 68° WNW 17:47:56 10° NNE
Cosmos 2297 Rocket 3.7 17:39:15 10° WNW 17:44:24 33° N 17:49:33 10° NE
Cosmos 1733 3.1 17:41:05 10° S 17:44:52 62° E 17:48:40 10° NNE
NOSS 2-3 (D) 4.4 17:40:54 10° W 17:45:57 75° N 17:51:26 15° E
Spot 2 Rocket 3.7 17:45:02 23° SE 17:47:57 53° ENE 17:52:53 10° NNW
Meteor 1-15 Rocket 4.2 17:43:23 10° SSW 17:49:05 89° ESE 17:54:58 10° NNE
Cosmos 1602 Rocket 4.1 17:45:29 10° N 17:49:41 43° ENE 17:51:27 29° ESE
Ariane Rocket 4.1 17:50:44 10° S 17:55:36 45° W 18:00:31 10° NNW
Cosmos 1805 3.3 17:52:34 10° SSW 17:56:30 84° WNW 18:00:28 10° NNE
NOSS 8 (E) 4.4 17:53:51 10° W 17:56:54 74° NNW 17:58:34 27° ENE
H-2A R/B 4.1 17:52:47 10° SSW 17:57:04 27° W 18:01:29 10° NNW
OBJECT-B 1.6 17:55:36 15° S 17:58:05 50° W 18:01:18 10° NNW
NOSS 8 (H) 4.2 17:55:09 10° WSW 17:58:12 84° NNW 17:59:50 28° ENE
Cosmos 909 Rocket 4.4 17:52:03 10° WNW 17:58:49 63° SW 18:03:01 22° SSE
Cosmos 1140 Rocket 3.9 17:53:48 10° NNW 17:58:51 50° NE 18:01:18 28° ESE
COSMOS 2406 4.3 17:55:20 10° NW 18:00:38 42° WSW 18:05:51 10° S
SJ 16-02 3.8 17:57:36 10° W 18:01:08 23° NNW 18:04:41 10° NNE
Okean 1-7 Rocket 3.7 17:56:32 10° NNW 18:01:09 83° WSW 18:04:23 19° S
Cosmos 1626 Rocket 3.6 17:57:02 10° N 18:01:28 62° ENE 18:03:25 32° SE
Exosat Rocket 3.4 17:57:49 10° SSW 18:02:49 65° ESE 18:08:03 10° NE
Cosmos 407 Rocket 3.6 17:58:32 10° NNW 18:03:39 60° NE 18:06:03 31° ESE
Cosmos 1626 3.4 18:00:14 10° NNW 18:03:44 39° W 18:07:12 10° SSW
Cosmos 2263 Rocket 3.1 17:59:09 10° WSW 18:04:35 49° NNW 18:10:05 10° NE
Terra 2.7 18:03:57 27° E 18:05:36 35° NE 18:09:55 10° N
Cosmos 1844 Rocket 2.6 18:03:02 10° SW 18:08:39 87° SE 18:14:19 10° NE
USA 229 DEB 3.9 18:02:00 10° W 18:08:54 78° N 18:14:14 20° E
USA 229 3.9 18:02:06 10° W 18:09:00 78° N 18:14:20 20° E
USA 290 2.3 18:07:03 10° NNW 18:10:15 57° NE 18:10:37 52° E
SPOT 1/Viking Rocket 3.6 18:08:06 30° SE 18:10:40 66° ENE 18:15:49 10° NNW
Cosmos 1455 Rocket 3.2 18:10:13 32° SSE 18:11:53 51° E 18:16:09 10° NNE
Cosmos 2266 Rocket 3.9 18:06:19 10° NNW 18:12:25 73° ENE 18:15:59 26° SSE
NOSS 2-3 (C) 4.4 18:07:17 10° W 18:12:30 75° N 18:17:06 21° E
Cosmos 2278 Rocket 2.7 18:10:00 22° SSE 18:12:48 35° ESE 18:17:55 10° NE
ATLAS CENTAUR R/B 1.4 18:10:13 10° WNW 18:13:55 57° NNE 18:15:07 36° ENE
Lacrosse 4 Rocket 2.4 18:10:55 10° WNW 18:14:42 38° SW 18:16:33 24° S
ISS -1.4 18:13:37 10° SW 18:14:49 14° SSW 18:14:49 14° SSW
Cosmos 1844 3.6 18:10:25 10° SW 18:16:06 83° SE 18:21:45 10° NE
Meteor 1-22 Rocket 4.3 18:11:13 10° S 18:17:14 82° ESE 18:23:23 10° NNE
NOSS 3-4 (A) 3.7 18:12:06 10° SSW 18:17:45 43° SE 18:23:53 10° ENE
NOSS 3-4 (C) 3.7 18:12:13 10° SSW 18:17:52 43° SE 18:23:59 10° ENE
Iridium 51 4.2 18:14:08 10° N 18:18:04 81° E 18:19:43 36° SSE
NOSS 3-1 (A) 3.8 18:14:38 10° W 18:21:05 78° N 18:26:34 21° E
Cosmos 614 Rocket 3.9 18:19:32 10° NW 18:24:46 88° WSW 18:26:53 37° SSE
Cosmos 1703 3.4 18:21:30 10° N 18:25:21 53° ENE 18:25:46 50° E
Cosmos 2292 Rocket 2.5 18:23:01 10° NNW 18:26:00 80° WSW 18:26:07 77° SW
Cosmos 1833 Rocket 3.9 18:20:52 10° NW 18:26:02 37° WSW 18:30:12 15° S
Okean 1 Rocket 3.8 18:22:56 10° SSW 18:27:22 55° WNW 18:31:49 10° N
Resurs 01 Rocket 2.3 18:25:52 20° S 18:28:45 53° WSW 18:33:09 10° NNW
CZ-2C R/B 3.6 18:25:18 10° NNE 18:29:46 66° ESE 18:31:44 33° S
Cosmos 2251 Rocket 4.1 18:24:58 10° NW 18:30:13 53° WSW 18:33:14 24° S
NOSS 2-2 (E) 3.6 18:26:28 10° WSW 18:30:26 83° NNW 18:33:40 21° ENE
Cosmos 1726 2.9 18:37:33 38° NE 18:37:33 38° NE 18:40:16 10° NNE
OPS 8737 4.3 18:33:55 10° WNW 18:36:25 64° W 18:36:25 64° W
Cosmos 1470 2.6 18:37:10 55° S 18:37:58 81° E 18:41:53 10° NNE
ATLAS 3B R/B 3.9 18:32:07 10° WNW 18:38:02 33° SW 18:42:35 16° S
Cosmos 1766 4.3 18:34:30 10° SW 18:38:20 46° WNW 18:42:12 10° N
ERS-1 Rocket 2.9 18:37:39 43° SE 18:39:17 73° ENE 18:44:20 10° NNW
NOSS 2-2 (D) 3.5 18:36:22 10° WSW 18:40:16 84° NNW 18:42:56 26° ENE
ATLAS 2AS CENTAUR R/B 3.0 18:33:01 10° SSW 18:40:44 56° SE 18:48:15 10° ENE
Cosmos 2227 Rocket 3.7 18:38:02 10° WNW 18:43:07 32° N 18:48:06 10° ENE
Cosmos 1634 Rocket 4.3 18:37:12 10° SSW 18:43:23 69° WNW 18:49:38 10° NNE
IGS 5A 3.7 18:42:30 40° S 18:43:50 65° WSW 18:47:59 10° NNW
ARIANE 5 R/B 3.0 18:42:32 33° SSW 18:44:15 59° WSW 18:48:34 10° NNW
Aureole 1 Rocket 3.5 18:39:09 10° NW 18:44:53 59° NE 18:46:00 46° E
Cosmos 1825 Rocket 3.6 18:42:38 10° N 18:47:01 58° ENE 18:47:30 54° E
COSMOS 2487 4.5 18:44:56 10° NNW 18:47:27 18° NNE 18:47:51 18° NE
Meteor 1-21 Rocket 4.5 18:41:59 10° NNW 18:47:43 69° WSW 18:50:49 29° S
Cosmos 1655 Rocket 4.3 18:42:23 10° NNW 18:48:36 64° W 18:52:53 21° S
Cosmos 1758 Rocket 3.5 18:44:39 10° NNW 18:49:10 71° ENE 18:49:51 60° SE
Cosmos 1190 Rocket 3.9 18:44:00 10° NW 18:49:19 88° NE 18:50:47 49° SE
Landsat 7 4.1 18:49:05 34° S 18:51:03 62° WSW 18:55:49 10° NNW
Cosmos 1125 Rocket 4.2 18:47:11 10° SW 18:52:26 57° NW 18:57:42 10° NNE
Cosmos 1833 4.5 18:48:30 10° NW 18:54:14 61° NE 18:56:13 39° E
Meteor 2-21 Rocket 4.4 18:48:13 10° NNW 18:54:28 77° ENE 18:56:44 42° SSE
Meteor 2-10 4.0 18:53:19 40° S 18:55:17 70° ESE 19:00:35 10° NNE
Cosmos 1340 4.4 18:52:38 10° N 18:55:21 22° NE 18:55:21 22° NE
SPOT 5 3.0 18:54:34 47° SSE 18:56:09 84° ENE 19:01:35 10° NNW
CARTOSAT-1 3.5 18:56:13 64° SSE 18:56:53 88° WSW 19:01:14 10° NNW
Cosmos 1953 2.7 18:58:57 50° NE 18:58:57 50° NE 19:02:13 10° NNE
Cosmos 1943 Rocket 4.2 19:01:02 12° ENE 19:01:02 12° ENE 19:01:46 10° ENE
NOSS 3-1 (C) 3.8 18:52:19 10° WNW 18:59:00 89° NNE 19:02:40 35° ESE
Cosmos 2084 3.7 18:57:52 10° WNW 19:02:16 56° SSW 19:02:29 55° SSW
Cosmos 1461 3.8 18:57:55 10° WNW 19:02:26 43° SW 19:03:08 40° SSW
SL-27 R/B 3.3 18:59:20 10° NNW 19:02:27 45° NNE 19:02:27 45° NNE
Cosmos 2285 Rocket 4.4 18:57:02 10° SW 19:03:21 65° NW 19:09:45 10° NE
Cosmos 1544 Rocket 3.5 19:04:34 57° SSW 19:05:25 84° WNW 19:09:48 10° NNE
Cosmos 2058 4.4 19:02:30 10° N 19:05:54 26° NE 19:05:54 26° NE
Meteor 1-11 4.1 19:01:23 10° NNW 19:07:01 84° ENE 19:08:27 52° SSE
CZ-2C R/B 3.7 19:02:49 10° NNE 19:08:07 48° WNW 19:13:28 10° SW
Cosmos 1328 3.7 19:05:07 10° NNW 19:09:09 80° WSW 19:09:09 80° WSW
SME Rocket 4.4 19:04:08 10° NNE 19:08:58 33° ENE 19:08:58 33° ENE
NOSS 2-3 (E) 4.4 19:04:57 10° WNW 19:10:25 85° NNE 19:13:04 40° ESE
CZ-4C R/B 4.1 19:14:58 17° ENE 19:14:58 17° ENE 19:16:41 10° ENE
Cosmos 1745 Rocket 4.3 19:06:13 10° N 19:12:14 52° ENE 19:13:37 44° ESE
TSX-5 4.4 19:09:42 10° SW 19:14:14 85° NW 19:20:13 10° NE
Meteor 1-16 Rocket 4.3 19:15:38 53° SSE 19:16:51 65° E 19:22:41 10° NNE
H-2A R/B 3.5 19:13:20 10° NNE 19:17:14 71° NE 19:17:14 71° NE
Cosmos 1758 3.8 19:17:38 47° WSW 19:18:28 59° WNW 19:22:29 10° N
Cosmos 2082 Rocket 3.7 19:14:03 10° NW 19:18:47 28° WSW 19:21:17 20° SSW
Cosmos 1340 Rocket 4.3 19:15:23 10° SW 19:19:06 37° WNW 19:22:53 10° N
SL-24 DEB 4.1 19:15:22 10° N 19:20:00 74° E 19:20:01 74° E
Cosmos 2279 Rocket 4.4 19:13:48 10° SSW 19:20:01 62° WNW 19:26:16 10° NNE
Cosmos 1244 Rocket 4.4 19:15:04 10° NNW 19:21:18 87° ENE 19:22:58 52° SSE
Lacrosse 5 rocket 3.2 19:17:55 10° W 19:20:43 22° SW 19:20:43 22° SW
Cosmos 1375 Rocket 4.5 19:17:22 10° WNW 19:24:00 86° NNE 19:25:57 49° ESE
ALOS 2 4.0 19:24:30 27° NE 19:24:36 27° NE 19:28:19 10° N
NOSS 2-2 (C) 3.8 19:21:08 10° W 19:25:10 73° N 19:26:24 48° ENE
Cosmos 1741 Rocket 4.2 19:20:37 10° NNW 19:25:55 59° NE 19:26:46 52° E
Cosmos 1953 Rocket 3.5 19:21:44 10° NNW 19:25:55 79° NNE 19:25:55 79° NNE
Spot 2 Rocket 4.5 19:25:14 29° SW 19:27:08 40° W 19:31:55 10° NNW
Cosmos 2297 Rocket 3.4 19:24:31 10° NW 19:29:48 37° NNE 19:32:54 22° ENE
COSMOS 2455 3.4 19:31:30 39° E 19:31:30 39° E 19:35:45 10° NE
NOSS 2-3 (D) 4.4 19:31:30 10° WNW 19:37:03 88° SSW 19:38:49 52° ESE
Cosmos 1892 4.0 19:33:53 10° N 19:36:29 34° NNE 19:36:29 34° NNE
Cosmos 1140 Rocket 3.9 19:35:46 10° NW 19:40:44 49° WSW 19:41:18 47° SW
Cosmos 1356 Rocket 4.4 19:42:26 38° NNE 19:42:26 38° NNE 19:45:07 10° NNE
SJ 16-02 4.2 19:38:45 10° NW 19:41:17 15° N 19:43:50 10° NNE
Timation 2 Rocket 4.5 19:35:19 10° NW 19:41:18 53° NNE 19:43:46 34° E
Terra 2.0 19:42:51 60° SW 19:43:11 62° WSW 19:47:57 10° NNW
Cosmos 2369 Rocket 4.0 19:46:58 18° ENE 19:46:58 18° ENE 19:48:53 10° NE
Cosmos 407 Rocket 4.3 19:40:46 10° NW 19:45:32 40° WSW 19:46:14 38° SW
Cosmos 1709 Rocket 4.2 19:40:23 10° N 19:46:26 54° ENE 19:47:22 49° E
In-Cosmos 22 Rocket 4.0 19:41:36 10° NNW 19:47:09 75° ENE 19:47:31 72° ESE
Cosmos 2263 Rocket 3.8 19:44:37 10° WNW 19:49:41 33° N 19:54:46 10° ENE
Cosmos 2297 4.4 19:52:37 39° ENE 19:52:37 39° ENE 19:56:34 10° NE
ATLAS CENTAUR R/B 2.7 19:49:13 10° WNW 19:51:16 30° WNW 19:51:16 30° WNW
Cosmos 1844 Rocket 3.9 19:47:47 10° W 19:53:07 42° NNW 19:58:28 10° NE
Cosmos 1825 3.9 19:51:14 10° N 19:53:33 27° NNE 19:53:33 27° NNE
Cosmos 1954 Rocket 4.2 19:51:02 10° NW 19:56:08 57° WSW 19:56:16 56° WSW
Cosmos 2278 Rocket 2.2 19:51:32 13° SW 19:56:35 78° NW 20:02:17 10° NE
Cosmos 676 Rocket 4.3 19:53:01 10° NW 19:58:07 55° WSW 19:58:16 55° WSW
S3M 4.3 19:58:23 48° E 19:58:23 48° E 20:04:14 10° NNE
USA 229 DEB 3.7 19:53:03 10° WNW 20:00:05 76° SSW 20:01:39 57° SE
USA 229 3.7 19:53:09 10° WNW 20:00:11 76° SSW 20:01:44 57° SE
Cosmos 2228 3.8 20:02:53 44° NNE 20:02:53 44° NNE 20:05:53 10° NNE
Cosmos 1850 Rocket 3.9 19:57:34 10° NW 20:02:47 89° N 20:02:47 89° N
NOSS 2-3 (C) 4.4 19:57:50 10° WNW 20:03:32 77° SSW 20:04:30 65° SSE
Cosmos 1908 4.5 20:06:48 39° N 20:06:48 39° N 20:09:23 10° N
Resurs 01 Rocket 4.4 20:04:33 10° WSW 20:06:18 12° W 20:08:03 10° WNW
NOSS 3-4 (A) 3.4 20:02:04 10° WSW 20:08:13 88° SSE 20:15:05 10° ENE
NOSS 3-4 (C) 3.4 20:02:10 10° WSW 20:08:20 88° SSE 20:15:11 10° ENE
MOS 1-B Rocket 4.5 20:01:30 10° NNE 20:08:23 67° ESE 20:09:55 55° SSE
Spot 4 3.9 20:12:22 75° N 20:12:22 75° N 20:16:53 10° NNW
Cosmos 1726 3.9 20:12:01 29° WNW 20:12:03 29° WNW 20:15:22 10° N
NOSS 3-1 (A) 3.8 20:05:29 10° WNW 20:12:18 77° SSW 20:13:58 58° SE
Aureole 3 4.1 20:16:21 74° ENE 20:16:21 74° ENE 20:21:03 10° NNE
ERS-1 Rocket 4.4 20:17:40 27° WSW 20:18:33 29° W 20:22:58 10° NNW
NOSS 2-2 (E) 4.0 20:16:55 10° WNW 20:21:01 73° NNW 20:21:01 73° NNW
Cosmos 2058 Rocket 4.2 20:22:53 39° NNE 20:22:53 39° NNE 20:25:47 10° NNE
Cosmos 1346 Rocket 4.1 20:19:30 10° NNW 20:22:04 37° N 20:22:04 37° N
Cosmos 1417 Rocket 4.3 20:23:12 73° ESE 20:23:27 75° E 20:29:39 10° NNE
SL-16 R/B 4.4 20:20:25 12° E 20:24:30 23° NE 20:29:12 10° NNW
Cosmos 2227 Rocket 3.0 20:22:53 10° NW 20:28:23 47° NNE 20:29:53 38° ENE
Aureole 1 Rocket 4.4 20:24:12 10° NW 20:28:35 35° W 20:28:35 35° W
Cosmos 2184 Rocket 4.4 20:24:16 10° N 20:30:15 48° ENE 20:31:00 45° E
NOSS 2-2 (D) 4.2 20:26:50 10° WNW 20:30:18 59° NW 20:30:18 59° NW
Cosmos 2315 Rocket 4.5 20:31:30 45° E 20:31:30 45° E 20:37:19 10° NNE
ATLAS 2AS CENTAUR R/B 2.9 20:23:36 10° WSW 20:31:37 87° NNW 20:39:16 10° ENE
Cosmos 1340 4.4 20:27:55 10° NNW 20:30:06 32° NNW 20:30:06 32° NNW
Meteor 2-15 4.4 20:33:14 69° E 20:33:16 69° E 20:39:24 10° NNE
Cosmos 1953 4.1 20:34:37 26° WNW 20:34:58 27° WNW 20:38:25 10° N
Cosmos 1943 Rocket 2.8 20:42:33 44° ENE 20:42:33 44° ENE 20:46:30 10° NE
Cosmos 2151 4.1 20:37:04 10° N 20:40:09 42° NNE 20:40:09 42° NNE
Cosmos 2058 4.1 20:39:13 10° NNW 20:42:05 41° NNW 20:42:05 41° NNW
Cosmos 1553 Rocket 4.0 20:46:30 68° SW 20:47:19 80° WNW 20:53:48 10° NNE
NOSS 3-1 (C) 4.1 20:43:01 10° WNW 20:49:48 52° SW 20:50:02 52° SW
Cosmos 2219 3.4 20:45:12 10° NW 20:50:53 62° NE 20:51:25 59° ENE
Cosmos 1745 Rocket 4.4 20:51:49 10° NNW 20:57:40 48° W 20:58:16 46° WSW
CZ-4C R/B 2.6 21:00:08 60° E 21:00:08 60° E 21:05:46 10° ENE
ALOS 2 3.6 21:01:54 45° NNW 21:01:54 45° NNW 21:05:03 10° NNW
Cosmos 371 Rocket 4.2 21:03:50 42° NE 21:03:50 42° NE 21:07:03 10° NE
SME Rocket 4.1 21:00:30 10° NNE 21:06:40 53° NW 21:07:13 50° WNW
Cosmos 2297 Rocket 2.3 21:08:58 10° NW 21:14:40 73° NE 21:14:40 73° NE
Cosmos 1486 Rocket 4.2 21:09:51 10° NNW 21:14:43 68° NNE 21:14:43 68° NNE
COSMOS 2455 2.9 21:14:36 58° W 21:15:47 75° NNW 21:21:52 10° ENE
Cosmos 1371 Rocket 4.2 21:16:44 70° NNW 21:16:44 70° NNW 21:21:49 10° NNE
Meteor 2-3 Rocket 3.7 21:11:44 10° NNW 21:17:03 73° NE 21:17:03 73° NE
Cosmos 1503 Rocket 4.4 21:13:06 10° NNW 21:18:09 55° NE 21:18:09 55° NE
RESURS DK-1 3.9 21:19:22 35° N 21:19:22 35° N 21:22:28 10° NE
Meteor 2-17 Rocket 4.3 21:12:57 10° NNW 21:19:08 88° WSW 21:19:08 88° WSW
Cosmos 1455 4.3 21:23:36 24° NNE 21:23:36 24° NNE 21:25:14 10° NNE
SJ 16-02 3.9 21:18:27 10° NNW 21:21:34 18° NNE 21:24:41 10° ENE
Terra 4.1 21:21:44 15° W 21:21:56 15° W 21:24:39 10° NW
Cosmos 2082 4.2 21:18:25 10° NW 21:24:02 56° NE 21:25:00 50° ENE
Helios 1A 4.3 21:26:50 39° N 21:26:50 39° N 21:29:32 10° NNW
Cosmos 2154 Rocket 4.0 21:19:21 10° NNW 21:25:37 68° ENE 21:25:59 66° E
Thor Agena Rocket 3.8 21:21:58 10° NNE 21:26:35 67° NE 21:26:35 67° NE
Cosmos 2369 Rocket 2.4 21:28:45 61° ENE 21:28:45 61° ENE 21:33:30 10° NE
Meteor 2-1 Rocket 4.2 21:28:22 76° NE 21:28:22 76° NE 21:33:34 10° NNE
Timation 2 Rocket 4.0 21:22:59 10° NW 21:28:43 70° W 21:28:43 70° W
Cosmos 2074 Rocket 3.8 21:22:52 10° NNW 21:29:13 88° WSW 21:29:20 87° SSW
Cosmos 1825 4.4 21:26:45 10° NNW 21:28:20 22° NW 21:28:20 22° NW
Cosmos 2056 Rocket 3.8 21:31:06 65° NNW 21:31:06 65° NNW 21:36:02 10° NNE
Cosmos 1709 Rocket 4.5 21:25:59 10° NNW 21:31:50 47° W 21:32:01 47° W
Cosmos 2263 Rocket 3.4 21:29:38 10° NW 21:34:55 39° NNE 21:40:15 10° E
Cosmos 2297 4.1 21:34:32 55° WNW 21:35:17 61° NW 21:40:55 10° NE
Cosmos 1420 Rocket 4.3 21:36:24 65° NNE 21:36:24 65° NNE 21:40:57 10° NE
Cosmos 2327 Rocket 4.4 21:31:42 10° NNW 21:38:10 80° ENE 21:38:27 78° ESE
Cosmos 1844 Rocket 4.4 21:33:15 10° WNW 21:38:17 32° N 21:43:20 10° ENE
Cosmos 2278 Rocket 3.5 21:36:09 10° W 21:41:26 38° NNW 21:46:43 10° NE
S3M 4.4 21:43:05 49° W 21:43:51 52° WNW 21:49:52 10° N
Cosmos 2341 Rocket 4.3 21:40:28 10° NNW 21:46:47 59° ENE 21:47:36 55° E
Cosmos 968 Rocket 3.9 21:41:32 10° NW 21:45:48 59° NW 21:45:48 59° NW
Cosmos 1452 Rocket 3.8 21:50:55 62° NE 21:50:55 62° NE 21:55:19 10° NE
Nadezhda 1 Rocket 4.2 21:57:19 55° E 21:57:24 55° E 22:03:18 10° NNE
NOSS 3-4 (A) 3.7 21:53:05 10° W 21:59:27 77° N 22:06:34 10° E
NOSS 3-4 (C) 3.7 21:53:11 10° W 21:59:33 77° N 22:06:40 10° E
Meteor 2-10 Rocket 3.9 22:00:42 64° WNW 22:00:42 64° WNW 22:06:19 10° NNE
Resurs 1-4 Rocket 4.1 22:00:29 10° NE 22:04:02 18° E 22:04:48 17° E
SL-16 R/B 3.0 22:05:31 43° ESE 22:07:07 55° ENE 22:13:08 10° NNW
USA 81 4.2 22:03:02 10° N 22:07:46 71° N 22:07:46 71° N
CZ-2D R/B 4.0 22:06:27 10° NE 22:10:12 19° E 22:10:59 18° E
Helios 1B rocket 4.3 22:07:41 10° NNE 22:10:04 25° ENE 22:10:04 25° ENE
Cosmos 2227 Rocket 2.5 22:07:09 10° NW 22:11:40 56° WNW 22:11:40 56° WNW
Cosmos 2184 Rocket 4.3 22:09:57 10° NNW 22:15:45 53° W 22:15:45 53° W
Cosmos 1656 Rocket 3.7 22:16:30 74° NE 22:16:30 74° NE 22:21:37 10° NE
Cosmos 2315 Rocket 4.3 22:16:20 54° W 22:16:58 56° WNW 22:23:09 10° NNE
ATLAS 2AS CENTAUR R/B 3.0 22:15:09 10° W 22:23:06 78° N 22:30:33 10° E
SL-8 Rocket 4.0 22:17:54 10° NNW 22:24:14 74° ENE 22:24:55 67° ESE
Cosmos 1943 Rocket 2.7 22:24:03 48° WNW 22:24:56 53° NW 22:30:25 10° NE
Cosmos 1295 Rocket 4.4 22:21:03 10° NNW 22:27:21 71° W 22:27:23 71° W
UNK 4.4 22:29:47 52° NE 22:29:47 52° NE 22:33:53 10° NNW
Cosmos 1633 Rocket 4.3 22:27:34 10° N 22:31:33 37° ENE 22:31:33 37° ENE
ATLAS 5 CENTAUR R/B 3.3 22:34:32 26° E 22:34:32 26° E 22:37:07 10° ENE
Timation 1 Rocket 4.3 22:28:12 10° NW 22:34:15 83° NE 22:34:54 72° ESE
Cosmos 2219 4.1 22:29:33 10° NW 22:33:18 37° WNW 22:33:18 37° WNW
Cosmos 292 Rocket 4.4 22:37:32 49° ENE 22:37:32 49° ENE 22:41:14 10° NE
Cosmos 2366 rocket 4.0 22:35:30 10° NNW 22:41:50 78° ENE 22:42:46 65° SE
Cosmos 1666 Rocket 4.4 22:38:02 10° N 22:42:00 47° NE 22:42:00 47° NE
Cosmos 371 Rocket 4.5 22:42:29 34° NW 22:43:05 35° NW 22:47:32 10° NNE
Cosmos 1805 Rocket 4.5 22:42:00 10° NNW 22:45:05 45° N 22:45:05 45° N
CZ-4 R/B 4.1 22:42:01 10° NNE 22:46:16 64° NE 22:46:16 64° NE
CZ-4C R/B 2.6 22:45:17 40° W 22:47:43 77° N 22:55:00 10° E
Cosmos 2218 Rocket 4.0 22:41:30 10° NNW 22:47:57 86° ENE 22:48:50 69° SSE
Cosmos 864 Rocket 4.3 22:46:14 10° NNW 22:52:27 85° ENE 22:53:10 71° SSE
ADEOS II 4.1 22:50:33 10° NE 22:54:19 19° E 22:56:28 16° ESE
Geosat 4.3 22:56:12 59° NW 22:56:12 59° NW 23:00:19 10° NW
USA 234 3.3 22:50:17 10° ESE 22:56:08 58° SSE 22:56:08 58° SSE
RESURS DK-1 4.4 22:55:15 17° NW 22:57:26 26° N 23:01:01 10° NE
Cosmos 1455 4.5 22:58:31 18° NW 22:58:31 18° NW 23:00:24 10° N
Cosmos-2242 4.3 22:58:39 34° NW 22:58:39 34° NW 23:01:46 10° N
Cosmos 2297 Rocket 3.4 22:53:16 10° NW 22:56:26 29° WNW 22:56:26 29° WNW
SJ 16-02 2.5 22:57:02 10° NNW 23:01:15 42° NE 23:02:27 34° E
COSMOS 2455 3.6 22:57:42 16° WNW 23:02:24 51° N 23:08:20 10° ENE
Cosmos 1959 Rocket 4.3 22:58:02 10° NNW 23:04:11 82° W 23:04:41 75° SSW
Cosmos 2221 3.1 23:09:06 55° N 23:09:06 55° N 23:12:32 10° NNE
Cosmos 2082 4.3 23:02:42 10° NW 23:06:50 44° WNW 23:06:50 44° WNW
CZ-4C R/B 4.0 23:10:11 60° N 23:10:11 60° N 23:13:52 10° NNW
Cosmos 2369 Rocket 3.0 23:10:31 36° WNW 23:12:15 46° NNW 23:17:46 10° NE
SL-19 R/B 4.3 23:10:36 10° NNE 23:15:45 57° ESE 23:16:11 55° SE
SL-08 R/B 4.5 23:10:55 10° NNW 23:17:23 87° ENE 23:18:59 55° SSE
Cosmos 1697 Rocket 3.8 23:17:28 30° SE 23:18:18 31° ESE 23:23:11 10° NE
Cosmos 2263 Rocket 2.2 23:13:53 10° NW 23:19:34 81° NE 23:22:19 32° SE
Cosmos 2181 Rocket 4.0 23:20:19 61° SSE 23:21:27 78° E 23:27:44 10° NNE
Cosmos 1992 Rocket 4.2 23:23:05 59° SE 23:23:14 59° ESE 23:28:24 10° NE
Cosmos 1844 Rocket 3.8 23:18:01 10° NW 23:23:25 44° NNE 23:28:50 10° E
Cosmos 1777 Rocket 4.4 23:19:13 10° NW 23:23:21 51° WNW 23:23:21 51° WNW
Cosmos 1980 Rocket 3.9 23:23:46 20° SE 23:25:30 23° ESE 23:29:47 10° NE
Meteor 1-27 4.4 23:25:48 56° W 23:26:17 58° WNW 23:31:54 10° NNE
Cosmos 2278 Rocket 3.8 23:21:44 10° WNW 23:26:52 33° N 23:31:58 10° ENE
H-2A R/B 4.5 23:25:17 10° E 23:28:50 23° NE 23:32:25 10° N
Sich 1 4.1 23:26:12 10° NNW 23:29:00 37° NW 23:29:00 37° NW
Cosmos 1898 Rocket 4.1 23:25:49 10° NNW 23:30:59 56° NE 23:36:12 10° SE
Cosmos 1869 4.5 23:32:36 36° NNW 23:32:36 36° NNW 23:35:18 10° N
Cosmos 1656 3.9 23:31:30 51° SE 23:32:01 53° ESE 23:37:27 10° NE
Cosmos 2341 Rocket 4.5 23:26:23 10° NNW 23:32:19 43° W 23:32:29 43° W
Cosmos 405 Rocket 4.3 23:32:21 10° NNW 23:34:33 30° NW 23:34:33 30° NW
Cosmos 1818 3.6 23:39:49 64° SSE 23:40:06 65° SE 23:45:32 10° ENE
Meteor 2-2 Rocket 4.2 23:40:40 62° WSW 23:41:29 72° WNW 23:47:24 10° NNE
SL-08 R/B 3.8 23:39:49 34° SE 23:41:38 56° ENE 23:46:11 10° NNW
Lacrosse 5 3.3 23:43:17 25° SE 23:43:17 25° SE 23:46:44 10° E
Cosmos 1470 Rocket 3.6 23:38:18 10° NNW 23:42:46 78° ENE 23:42:48 78° E
Nadezhda 1 Rocket 4.4 23:41:57 42° W 23:42:57 46° WNW 23:48:48 10° N
Cosmos 1302 Rocket 4.1 23:43:59 60° W 23:44:32 65° NW 23:49:48 10° NNE
AQUA 4.4 23:40:03 10° NNE 23:44:43 50° E 23:45:33 45° SE
Resurs 1-4 Rocket 2.2 23:39:35 10° NNE 23:44:53 68° ESE 23:45:52 55° SSE
Helios 1B rocket 3.0 23:42:50 10° NNE 23:46:22 50° NW 23:46:22 50° NW
COBE Rocket 4.1 23:47:29 56° W 23:47:29 56° W 23:52:20 10° NNW
SL-19 R/B 4.2 23:46:59 55° S 23:48:14 77° WSW 23:54:08 10° NNW
NOSS 3-4 (A) 3.6 23:44:01 10° WNW 23:50:36 78° SSW 23:57:57 10° SE
Cosmos 1602 4.2 23:46:49 10° NNW 23:50:02 57° NNE 23:50:02 57° NNE
NOSS 3-4 (C) 3.6 23:44:08 10° WNW 23:50:42 78° SSW 23:58:04 10° SE
Cosmos 1937 Rocket 4.0 23:45:40 10° NNW 23:50:48 57° NE 23:55:52 10° SE
SL-16 R/B 2.7 23:50:37 49° WSW 23:50:55 49° W 23:56:55 10° NNW
CZ-2D R/B 2.2 23:45:53 10° NNE 23:51:13 72° ESE 23:52:17 55° SSE
Cosmos 1842 Rocket 4.4 23:51:55 41° NW 23:51:55 41° NW 23:55:55 10° N
Cosmos 2227 4.0 23:46:11 10° NW 23:51:51 72° SW 23:53:14 51° SSE
Meteor 1-29 4.3 23:53:12 10° N 23:55:21 34° N 23:55:21 34° N
